When you browse on this site, cookies collect data to enhance your experience and personalize the content and advertising you see.
Visit our Privacy Policy to learn more. By continuing to use the site, you agree to this use of cookies and data.
  • In Austria
  • List of Countries
  • For 7 days
  • Water Temperature
  • Weather Map
  • News
  • Weather Widgets
  • user-avatar
    Login

    Hourly Weather Los Reyes

    Today, 17 November, Sunday

    Time Temperature Precipitation Wind Pressure Humidity
    00:00 +8°C° 0 mm 0 mps 584 mmHg 90%
    01:00 +9°C° 0 mm 1 mps 583 mmHg 89%
    02:00 +9°C° 0 mm 1 mps 583 mmHg 88%
    03:00 +9°C° 0 mm 1 mps 583 mmHg 85%
    04:00 +9°C° 0 mm 1 mps 583 mmHg 83%
    05:00 +9°C° 0 mm 1 mps 583 mmHg 81%
    06:00 +11°C° 0 mm 1 mps 585 mmHg 75%
    07:00 +13°C° 0 mm 1 mps 586 mmHg 68%
    08:00 +15°C° 0 mm 1 mps 587 mmHg 62%
    09:00 +16°C° 0 mm 1 mps 587 mmHg 60%
    10:00 +18°C° 0 mm 2 mps 587 mmHg 58%
    11:00 +19°C° 0 mm 2 mps 588 mmHg 56%
    12:00 +18°C° 0 mm 3 mps 587 mmHg 60%
    13:00 +18°C° 0 mm 3 mps 586 mmHg 64%
    14:00 +17°C° 0 mm 3 mps 585 mmHg 68%
    15:00 +15°C° 0 mm 2 mps 585 mmHg 76%
    16:00 +14°C° 0 mm 1 mps 584 mmHg 84%
    17:00 +11°C° 0 mm 0 mps 584 mmHg 93%
    18:00 +11°C° 0 mm 0 mps 584 mmHg 89%
    19:00 +11°C° 0 mm 1 mps 584 mmHg 85%
    20:00 +11°C° 0 mm 1 mps 585 mmHg 81%
    21:00 +11°C° 0 mm 1 mps 585 mmHg 79%
    22:00 +11°C° 0 mm 1 mps 584 mmHg 76%
    23:00 +11°C° 0 mm 1 mps 584 mmHg 73%

    Tomorrow, 18 November, Monday

    Time Temperature Precipitation Wind Pressure Humidity
    00:00 +11°C° 0 mm 1 mps 584 mmHg 72%
    01:00 +10°C° 0 mm 1 mps 584 mmHg 71%
    02:00 +10°C° 0 mm 1 mps 583 mmHg 70%
    03:00 +10°C° 0 mm 1 mps 583 mmHg 70%
    04:00 +10°C° 0 mm 1 mps 583 mmHg 70%
    05:00 +10°C° 0 mm 1 mps 583 mmHg 69%
    06:00 +11°C° 0 mm 1 mps 584 mmHg 65%
    07:00 +13°C° 0 mm 1 mps 586 mmHg 61%
    08:00 +15°C° 0 mm 1 mps 587 mmHg 56%
    09:00 +16°C° 0 mm 1 mps 587 mmHg 57%
    10:00 +17°C° 0 mm 2 mps 587 mmHg 57%
    11:00 +17°C° 0 mm 2 mps 587 mmHg 58%
    12:00 +17°C° 0 mm 2 mps 586 mmHg 66%
    13:00 +16°C° 0 mm 2 mps 585 mmHg 73%
    14:00 +15°C° 0 mm 2 mps 584 mmHg 81%
    15:00 +14°C° 0 mm 2 mps 584 mmHg 86%
    16:00 +13°C° 0 mm 1 mps 583 mmHg 91%
    17:00 +11°C° 0 mm 0 mps 583 mmHg 96%
    18:00 +11°C° 0 mm 0 mps 583 mmHg 92%
    19:00 +12°C° 0 mm 1 mps 584 mmHg 88%
    20:00 +12°C° 0 mm 1 mps 585 mmHg 84%
    21:00 +12°C° 0 mm 1 mps 584 mmHg 81%
    22:00 +12°C° 0 mm 1 mps 584 mmHg 79%
    23:00 +12°C° 0 mm 1 mps 584 mmHg 76%

    Day after tomorrow, 19 November, Tuesday

    Time Temperature Precipitation Wind Pressure Humidity
    00:00 +11°C° 0 mm 1 mps 584 mmHg 76%
    01:00 +11°C° 0 mm 1 mps 583 mmHg 76%
    02:00 +11°C° 0 mm 1 mps 583 mmHg 76%
    03:00 +10°C° 0 mm 1 mps 583 mmHg 76%
    04:00 +10°C° 0 mm 1 mps 583 mmHg 77%
    05:00 +9°C° 0 mm 0 mps 583 mmHg 77%
    06:00 +11°C° 0 mm 0 mps 584 mmHg 70%
    07:00 +14°C° 0 mm 1 mps 586 mmHg 64%
    08:00 +16°C° 0 mm 1 mps 587 mmHg 57%
    09:00 +18°C° 0 mm 1 mps 587 mmHg 56%
    10:00 +18°C° 0 mm 2 mps 587 mmHg 56%
    11:00 +19°C° 0 mm 2 mps 587 mmHg 55%
    12:00 +18°C° 0 mm 2 mps 586 mmHg 60%
    13:00 +18°C° 0 mm 2 mps 586 mmHg 66%
    14:00 +17°C° 0 mm 2 mps 585 mmHg 71%
    15:00 +16°C° 0 mm 2 mps 585 mmHg 79%
    16:00 +14°C° 0 mm 1 mps 584 mmHg 87%
    17:00 +13°C° 0 mm 1 mps 584 mmHg 96%
    18:00 +13°C° 0 mm 1 mps 584 mmHg 95%
    19:00 +12°C° 0 mm 1 mps 584 mmHg 95%
    20:00 +12°C° 0 mm 1 mps 584 mmHg 95%
    21:00 +12°C° 0 mm 1 mps 584 mmHg 92%
    22:00 +12°C° 0 mm 1 mps 584 mmHg 89%
    23:00 +12°C° 0 mm 1 mps 584 mmHg 86%

    20 November, Wednesday

    Time Temperature Precipitation Wind Pressure Humidity
    00:00 +12°C° 0 mm 1 mps 584 mmHg 86%
    01:00 +12°C° 0 mm 1 mps 584 mmHg 86%
    02:00 +12°C° 0 mm 1 mps 583 mmHg 86%
    03:00 +12°C° 0 mm 1 mps 583 mmHg 86%
    04:00 +12°C° 0 mm 1 mps 584 mmHg 86%
    05:00 +12°C° 0 mm 1 mps 584 mmHg 86%
    06:00 +13°C° 0 mm 1 mps 585 mmHg 80%
    07:00 +15°C° 0 mm 1 mps 586 mmHg 73%
    08:00 +18°C° 0 mm 1 mps 587 mmHg 67%
    09:00 +19°C° 0 mm 1 mps 587 mmHg 62%
    10:00 +21°C° 0 mm 1 mps 588 mmHg 58%
    11:00 +21°C° 0 mm 2 mps 588 mmHg 53%
    12:00 +21°C° 0.1 mm 2 mps 587 mmHg 57%
    13:00 +20°C° 0.1 mm 2 mps 586 mmHg 61%
    14:00 +20°C° 0.1 mm 2 mps 586 mmHg 65%
    15:00 +18°C° 0.1 mm 2 mps 585 mmHg 73%
    16:00 +16°C° 0.1 mm 1 mps 584 mmHg 81%
    17:00 +13°C° 0.1 mm 0 mps 584 mmHg 90%
    18:00 +14°C° 0 mm 1 mps 584 mmHg 85%
    19:00 +14°C° 0 mm 1 mps 584 mmHg 80%
    20:00 +14°C° 0 mm 1 mps 585 mmHg 76%
    21:00 +14°C° 0 mm 1 mps 585 mmHg 73%
    22:00 +13°C° 0 mm 1 mps 584 mmHg 70%
    23:00 +13°C° 0 mm 1 mps 584 mmHg 67%

    21 November, Thursday

    Time Temperature Precipitation Wind Pressure Humidity
    00:00 +13°C° 0 mm 1 mps 584 mmHg 67%
    01:00 +13°C° 0 mm 1 mps 584 mmHg 67%
    02:00 +13°C° 0 mm 1 mps 584 mmHg 66%
    03:00 +13°C° 0 mm 2 mps 584 mmHg 67%
    04:00 +13°C° 0 mm 2 mps 584 mmHg 67%
    05:00 +12°C° 0 mm 2 mps 584 mmHg 67%
    06:00 +14°C° 0 mm 1 mps 585 mmHg 64%
    07:00 +16°C° 0 mm 1 mps 586 mmHg 61%
    08:00 +19°C° 0 mm 1 mps 588 mmHg 58%
    09:00 +20°C° 0 mm 1 mps 588 mmHg 55%
    10:00 +21°C° 0 mm 1 mps 588 mmHg 51%
    11:00 +23°C° 0 mm 2 mps 588 mmHg 48%
    12:00 +21°C° 0 mm 2 mps 587 mmHg 52%
    13:00 +21°C° 0 mm 2 mps 587 mmHg 56%
    14:00 +21°C° 0 mm 2 mps 586 mmHg 59%
    15:00 +19°C° 0.1 mm 2 mps 585 mmHg 69%
    16:00 +18°C° 0.1 mm 1 mps 585 mmHg 79%
    17:00 +14°C° 0.1 mm 0 mps 584 mmHg 89%
    18:00 +14°C° 0 mm 0 mps 584 mmHg 86%
    19:00 +13°C° 0 mm 0 mps 584 mmHg 84%
    20:00 +13°C° 0 mm 0 mps 585 mmHg 81%
    21:00 +14°C° 0 mm 1 mps 584 mmHg 77%
    22:00 +14°C° 0 mm 1 mps 584 mmHg 74%
    23:00 +14°C° 0 mm 1 mps 584 mmHg 70%

    22 November, Friday

    Time Temperature Precipitation Wind Pressure Humidity
    00:00 +13°C° 0 mm 1 mps 584 mmHg 69%
    01:00 +13°C° 0 mm 1 mps 584 mmHg 69%
    02:00 +13°C° 0 mm 1 mps 583 mmHg 68%
    03:00 +13°C° 0 mm 1 mps 583 mmHg 70%
    04:00 +13°C° 0 mm 1 mps 583 mmHg 71%
    05:00 +13°C° 0 mm 1 mps 584 mmHg 73%
    06:00 +15°C° 0 mm 1 mps 585 mmHg 69%
    07:00 +16°C° 0 mm 1 mps 586 mmHg 64%
    08:00 +19°C° 0 mm 1 mps 587 mmHg 60%
    09:00 +21°C° 0 mm 1 mps 587 mmHg 58%
    10:00 +21°C° 0 mm 2 mps 587 mmHg 55%
    11:00 +23°C° 0 mm 2 mps 588 mmHg 52%
    12:00 +21°C° 0.5 mm 2 mps 587 mmHg 57%
    13:00 +21°C° 0.5 mm 2 mps 586 mmHg 62%
    14:00 +20°C° 0.5 mm 2 mps 585 mmHg 66%
    15:00 +20°C° 0.3 mm 1 mps 584 mmHg 73%
    16:00 +18°C° 0.3 mm 1 mps 584 mmHg 80%
    17:00 +14°C° 0.3 mm 0 mps 583 mmHg 87%
    18:00 +15°C° 0 mm 1 mps 584 mmHg 85%
    19:00 +14°C° 0 mm 1 mps 584 mmHg 83%
    20:00 +14°C° 0 mm 1 mps 584 mmHg 81%
    21:00 +13°C° 0 mm 1 mps 584 mmHg 81%
    22:00 +13°C° 0 mm 1 mps 584 mmHg 81%
    23:00 +13°C° 0 mm 1 mps 584 mmHg 81%
    Show more